Location: Molveno
(46.1500°N, 10.9667°E)
Time: 14:55:19
(UTC+00:00)

Daily predictions for brighter satellites

Satellite Brightness Start Highest point End
(mag) Time Altitude Azimuth Time Altitude Azimuth Time Altitude Azimuth
H-2A ROCKET BODY 4.3 19:31:47 10° SSW 19:35:25 18° SSE 19:42:59 10° SE
Cosmos 1745 Rocket 4.1 19:40:49 10° S 19:46:52 60° E 19:53:01 10° NNE
Landsat 7 4.5 19:43:47 10° SE 19:48:15 41° ENE 19:52:43 10° N
Resurs 1-3 4.2 19:46:00 10° S 19:50:19 58° W 19:54:40 10° NNW
Cosmos 1125 Rocket 3.9 19:45:59 10° NNW 19:51:13 68° WSW 19:56:26 10° S
Meteor 1-21 Rocket 4.4 19:50:04 10° S 19:55:55 72° E 20:01:51 10° NNE
USA 267 4.4 19:50:28 10° E 19:56:31 41° NNE 20:02:34 10° NW
SPOT 1/Viking Rocket 4.1 19:51:48 10° SE 19:56:38 43° ENE 20:01:31 10° N
Alouette 2 Rocket 4.2 19:57:38 10° N 20:01:18 42° ENE 20:06:03 10° SE
Cosmos 2322 Rocket 2.6 19:55:53 10° SW 20:01:27 68° WNW 20:07:05 10° NNE
SL-08 ROCKET BODY 4.4 19:56:25 10° S 20:02:20 77° E 20:08:24 10° N
SPOT 3 Rocket 4.5 19:57:40 10° S 20:02:41 49° W 20:07:46 10° NNW
NOSS 7 (D) 3.7 20:00:47 10° SW 20:03:38 82° SE 20:06:19 10° NE
Cosmos 2237 4.2 19:58:27 10° SSW 20:04:09 75° ESE 20:09:55 10° NNE
Cosmos 1328 4.2 20:02:44 10° SSE 20:06:31 44° E 20:10:19 10° NNE
SAR-Lupe-2 4.4 20:07:07 10° NNE 20:10:24 32° E 20:13:38 10° SSE
Cosmos 1455 2.3 20:08:36 10° N 20:12:27 83° W 20:16:19 10° S
Cosmos 1825 Rocket 3.7 20:11:28 10° S 20:15:49 60° E 20:20:13 10° NNE
ATLAS CENTAUR R/B 2.6 20:15:52 10° NNW 20:19:05 27° NE 20:22:15 10° ESE
Cosmos 1703 3.2 20:16:33 10° S 20:20:25 74° E 20:24:17 10° NNE
COSMOS 2428 3.4 20:16:28 10° SSE 20:21:26 33° ESE 20:26:26 10° NE
Cosmos 1812 Rocket 4.4 20:18:28 10° NNW 20:22:40 48° W 20:26:49 10° SSW
SL-24 R/B - RUBIN 2 4.5 20:18:18 10° SSW 20:24:10 61° ESE 20:30:40 10° NE
Cosmos 1844 3.8 20:18:43 10° NNW 20:24:32 80° ENE 20:29:32 14° SSE
Cosmos 2322 3.8 20:19:38 10° S 20:25:13 58° ESE 20:30:50 10° NNE
CZ-4B DEB 4.5 20:28:15 16° SSE 20:30:45 61° ENE 20:34:05 10° N
Cosmos 783 Rocket 4.5 20:26:08 10° SSW 20:31:22 88° ESE 20:36:38 10° NNE
Cosmos 1709 Rocket 4.0 20:25:40 10° S 20:31:55 73° E 20:38:17 10° NNE
NOSS 3-3 (A) 4.2 20:28:17 10° S 20:33:44 44° ESE 20:39:48 10° NE
NOSS 3-3 (C) 4.2 20:28:24 10° S 20:33:51 44° ESE 20:39:55 10° NE
Terra 2.5 20:31:40 15° SE 20:35:12 41° ENE 20:39:41 10° N
Cosmos 2237 Rocket 3.8 20:33:12 14° SE 20:35:22 17° E 20:38:53 10° ENE
Atlas Centaur 2 3.8 20:31:32 10° SW 20:35:51 20° S 20:38:47 15° SSE
CARTOSAT-1 3.7 20:32:57 16° SSE 20:36:19 63° ENE 20:40:35 10° N
Cosmos 2333 4.2 20:31:25 10° SSW 20:37:00 68° ESE 20:42:40 10° NNE
Cosmos 2219 Rocket 2.4 20:32:05 10° S 20:37:24 48° ESE 20:42:46 10° NE
Cosmos 2360 Rocket 2.7 20:33:45 10° SW 20:39:20 64° WNW 20:45:00 10° NNE
IGS 5A 3.8 20:35:34 11° S 20:39:31 61° WSW 20:43:40 10° NNW
Cosmos 1538 Rocket 4.4 20:35:10 10° S 20:40:16 47° ESE 20:45:22 10° NNE
Cosmos 2333 Rocket 2.2 20:41:35 10° S 20:47:10 62° ESE 20:52:50 10° NNE
Resurs 01 Rocket 3.8 20:48:12 10° SW 20:51:34 21° W 20:54:57 10° NW
Cosmos 1315 Rocket 3.1 20:47:44 10° N 20:51:47 57° ENE 20:54:13 22° SSE
ATLAS 2AS CENTAUR R/B 3.9 20:44:42 10° NNW 20:51:51 39° NE 20:58:25 10° ESE
Cosmos 1818 4.4 20:49:31 10° SW 20:54:51 55° NW 21:00:13 10° NNE
Cosmos-2242 3.8 20:51:01 10° NNW 20:55:13 49° W 20:59:06 12° SSW
Cosmos 773 Rocket 4.1 20:51:55 10° SSW 20:57:14 85° WNW 21:02:34 10° NNE
Cosmos 2221 3.2 20:56:04 10° N 21:00:15 41° ENE 21:02:29 23° SE
ERS-1 Rocket 3.1 20:56:51 17° S 21:00:45 75° WSW 21:05:50 10° NNW
GEOS 3 Rocket 4.1 20:58:04 10° NE 21:03:26 68° NW 21:08:46 10° SW
USA 215 3.2 21:00:08 10° NE 21:06:43 75° SE 21:13:16 10° SW
Cosmos 1892 3.8 21:07:02 24° ESE 21:08:01 27° E 21:11:15 10° NNE
Cosmos 2278 Rocket 2.7 21:03:56 10° NNW 21:09:29 51° ENE 21:13:09 21° SE
ATLAS 5 CENTAUR R/B 2.9 21:07:40 10° WSW 21:11:39 41° NW 21:16:10 10° NNE
Meteor 1-11 4.5 21:06:06 10° SSW 21:11:43 71° WNW 21:17:25 10° N
Cosmos 1844 Rocket 3.8 21:09:04 10° NW 21:14:04 35° WSW 21:18:16 14° SSW
Gblst 52 Del rocket 4.3 21:09:41 10° WNW 21:15:25 85° NNE 21:20:33 16° ESE
SPOT 5 3.3 21:13:56 19° S 21:17:30 60° WSW 21:22:18 10° NNW
SL-16 R/B 4.0 21:18:55 13° ESE 21:19:47 14° E 21:22:32 10° ENE
Lacrosse 5 rocket 4.1 21:18:06 10° NW 21:20:58 18° N 21:23:44 10° NE
USA 81 4.5 21:19:52 13° SSW 21:24:34 61° W 21:29:49 10° N
Nadezhda 3 Rocket 4.5 21:19:23 10° N 21:25:35 50° ENE 21:29:11 24° SE
Cosmos 2058 3.3 21:25:00 32° SE 21:26:26 46° E 21:30:24 10° NNE
Cosmos 2154 Rocket 4.4 21:23:04 24° SSE 21:26:27 48° E 21:32:22 10° NNE
BREEZE M DEB (TANK) 3.3 21:26:20 10° W 21:27:39 22° WSW 21:27:39 22° WSW
Cosmos 2181 Rocket 4.5 21:23:15 10° NNW 21:29:27 57° W 21:34:15 17° SSW
Cosmos 1408 3.6 21:29:06 27° ESE 21:29:30 28° E 21:32:35 10° NNE
Meteor 2-17 Rocket 4.4 21:27:25 24° S 21:31:11 67° E 21:37:11 10° NNE
In-Cosmos 22 Rocket 4.1 21:29:55 27° S 21:32:46 63° E 21:38:02 10° NNE
Cosmos 2074 Rocket 3.9 21:29:15 20° S 21:33:43 85° E 21:39:58 10° N
TSX-5 3.8 21:32:37 10° NNW 21:36:07 68° ENE 21:37:36 36° SE
Cosmos 1076 Rocket 3.7 21:36:08 35° SSE 21:37:37 55° E 21:41:49 10° NNE
Cosmos 1680 Rocket 3.8 21:35:42 29° SSE 21:38:03 50° ESE 21:43:12 10° NNE
USA 267 3.3 21:34:05 19° ESE 21:39:05 83° NE 21:45:41 10° NW
Cosmos 2084 3.9 21:42:20 10° NW 21:46:40 50° WSW 21:48:05 35° S
Cosmos 1842 Rocket 4.1 21:42:47 10° NNW 21:47:02 52° W 21:49:02 28° SSW
Cosmos 2151 4.0 21:47:18 29° ESE 21:48:09 31° E 21:51:55 10° NNE
JB-3 4.4 21:44:25 10° N 21:48:16 70° WNW 21:49:57 31° SSW
MTI 4.5 21:49:13 10° N 21:52:12 47° WNW 21:53:10 33° SW
Cosmos 923 Rocket 4.0 21:52:20 24° SSW 21:55:33 90° ESE 22:00:53 10° NNE
Cosmos 2327 Rocket 4.4 21:52:14 26° S 21:55:54 86° E 22:02:04 10° N
ATLAS CENTAUR R/B 2.2 21:54:42 10° NW 21:57:58 30° WSW 21:58:26 29° SW
Cosmos 1825 2.7 21:58:09 40° ESE 21:58:33 42° E 22:02:09 10° NNE
ALOS 2 3.7 21:58:03 26° ESE 21:59:39 34° ENE 22:03:37 10° N
Cosmos 1980 3.6 21:56:55 24° SSW 22:00:25 82° ESE 22:06:06 10° NNE
Cosmos 2369 Rocket 4.4 21:57:42 10° N 22:01:23 18° NE 22:05:04 10° E
Cosmos 1151 Rocket 4.5 21:58:14 10° NNE 22:01:52 26° ENE 22:03:13 22° E
Cosmos 44 4.1 22:05:15 28° ESE 22:05:15 28° ESE 22:08:42 10° NE
COSMOS 2428 3.8 22:00:10 10° SW 22:05:33 43° NW 22:10:59 10° NNE
Cosmos 1869 4.5 22:04:17 10° NNW 22:07:55 35° W 22:09:22 26° SW
Cosmos 1295 Rocket 4.4 22:06:31 31° S 22:09:36 80° E 22:15:44 10° N
GP-B 4.0 22:06:20 10° NNE 22:10:25 34° E 22:11:23 31° ESE
NOSS 0 Rocket 4.1 22:07:31 14° SW 22:12:51 73° WNW 22:19:03 10° NNE
Terra 3.5 22:10:34 16° SW 22:13:06 25° W 22:16:59 10° NW
Cosmos 1624 Rocket 4.0 22:09:41 10° NNW 22:14:57 73° ENE 22:16:57 38° SE
NOSS 3-4 (A) 3.8 22:08:25 10° NW 22:15:26 88° SW 22:19:47 29° SE
NOSS 3-4 (C) 3.8 22:08:31 10° NW 22:15:33 89° SW 22:19:55 29° SE
Cosmos 2237 Rocket 2.3 22:14:58 22° SSW 22:18:42 79° WNW 22:24:27 10° NNE
Genesis I 3.0 22:18:36 52° SSW 22:19:29 86° SE 22:23:24 10° NE
Cosmos 2344 3.5 22:16:02 20° SSW 22:21:25 71° ESE 22:29:21 10° NE
Cosmos 2219 Rocket 3.9 22:16:39 10° WSW 22:21:34 31° NW 22:26:32 10° N
Atlas Centaur 2 4.4 22:20:01 10° SW 22:21:21 13° SW 22:21:21 13° SW
DELTA 2 R/B (1) 3.9 22:24:55 10° WSW 22:36:22 - E 22:30:03 41° S
Thor Agena Rocket 3.7 22:25:50 10° N 22:30:55 69° WNW 22:33:18 31° SSW
Cosmos 2333 Rocket 4.2 22:27:10 10° WSW 22:31:53 26° NW 22:36:39 10° N
BREEZE-M DEB (TANK) 2.0 22:38:31 10° WNW 22:41:22 53° NW 22:41:22 53° NW
Cosmos 1515 Rocket 4.5 22:38:06 10° N 22:42:10 37° ENE 22:43:15 32° ESE
Cosmos 1371 Rocket 4.2 22:37:28 10° NNW 22:42:39 59° WSW 22:44:15 41° SSW
ATLAS 2AS CENTAUR R/B 2.8 22:35:53 10° NW 22:43:21 68° WSW 22:46:25 36° SSE
EO 1 Del DPAF 4.0 22:40:23 10° N 22:44:00 45° WNW 22:44:59 35° WSW
Cosmos 1766 Rocket 3.4 22:44:24 57° S 22:45:17 82° E 22:49:42 10° N
Gbstr 26 Del rocket 4.1 22:49:28 26° E 22:49:28 26° E 22:51:42 10° ENE
Okean 3 Rocket 3.5 22:47:02 52° SSW 22:48:06 81° W 22:52:33 10° N
USA 215 4.2 22:43:17 10° NE 22:49:32 48° NNW 22:55:45 10° W
Cosmos 1328 Rocket 3.5 22:45:18 10° N 22:49:38 74° E 22:50:25 56° SE
Aureole 2 Rocket 2.9 22:46:51 10° NNW 22:48:59 46° NW 22:48:59 46° NW
Cosmos 1606 2.6 22:48:04 10° N 22:51:58 79° W 22:52:19 70° SSW
Cosmos 2278 Rocket 3.5 22:48:34 10° NW 22:53:15 27° WSW 22:54:59 23° SW
Cosmos 2218 Rocket 4.0 22:50:54 38° S 22:53:31 77° E 22:59:50 10° NNE
Cosmos 2297 3.6 22:49:20 10° NNW 22:55:06 87° WSW 22:57:11 42° SSE
Cosmos 2228 Rocket 4.4 22:53:41 10° N 22:57:49 32° ENE 22:59:19 26° ESE
Cosmos 1420 Rocket 3.9 22:53:37 10° NNW 22:58:55 90° ENE 23:00:36 45° SSE
Cosmos 2366 rocket 4.0 22:56:35 38° S 22:59:12 81° E 23:05:35 10° N
Cosmos 1633 3.4 23:01:11 38° E 23:01:11 38° E 23:04:29 10° NNE
Lacrosse 5 rocket 3.3 22:57:47 10° NW 23:01:14 26° NNE 23:04:31 10° E
Cosmos 1943 Rocket 2.7 22:56:10 10° NNW 23:01:45 55° ENE 23:04:40 27° SE
SL-16 R/B 2.1 23:00:46 39° SSW 23:03:00 89° ESE 23:08:45 10° NNE
Landsat 4 4.4 23:00:24 10° NNE 23:03:58 39° E 23:03:58 39° E
Cosmos 2056 Rocket 4.2 23:01:25 10° NNW 23:06:32 44° WSW 23:07:58 36° SW
Cosmos 1959 Rocket 4.4 23:06:20 39° SSW 23:08:50 85° W 23:15:05 10° N
YAOGAN 11 4.2 23:09:09 50° SE 23:10:09 68° ENE 23:14:33 10° N
Cosmos 1743 Rocket 3.9 23:12:36 45° ESE 23:13:13 49° E 23:17:25 10° NNE
Cosmos 332 Rocket 3.7 23:15:27 10° NNW 23:20:17 90° SSW 23:21:28 52° SSE
Cosmos 1048 Rocket 4.3 23:19:32 43° SSE 23:20:50 54° ESE 23:25:58 10° NNE
USA 267 4.0 23:21:24 30° SSW 23:22:32 32° SW 23:28:18 10° WNW
Meteor 2-3 Rocket 3.7 23:21:02 42° SSW 23:23:03 81° W 23:28:48 10° N
Helios 1A 2.9 23:24:53 60° SW 23:25:23 67° WSW 23:29:34 10° NNW
Cosmos 405 2.9 23:25:35 10° N 23:29:07 79° ENE 23:29:07 79° ENE
Meteor 1-26 Rocket 4.5 23:27:19 10° NNW 23:33:15 65° W 23:35:20 40° SSW
Cosmos 1452 Rocket 3.5 23:28:27 10° NNW 23:33:42 69° WSW 23:35:06 47° S
Cosmos 1340 3.4 23:34:23 40° W 23:34:50 41° WNW 23:38:26 10° N
CZ-4C R/B 3.4 23:27:54 10° NW 23:34:53 59° NE 23:42:57 10° SE
Meteor 2-6 Rocket 4.4 23:30:15 10° N 23:35:42 61° ENE 23:37:53 35° SE
COSMOS 2455 2.8 23:29:41 10° NNW 23:35:46 85° WSW 23:38:24 36° SSE
PSLV R/B 3.6 23:31:44 10° NNE 23:35:56 60° ESE 23:36:34 53° SE
ALOS 2 3.9 23:35:27 25° WSW 23:36:01 26° W 23:39:43 10° NW
Cosmos 1408 Rocket 4.1 23:35:56 40° WSW 23:36:55 48° WNW 23:41:13 10° N
SL-16 R/B 4.2 23:32:33 10° ESE 23:37:38 27° ENE 23:42:46 10° N
Cosmos 1110 Rocket 4.5 23:32:26 10° NNW 23:37:39 56° ENE 23:40:15 28° SE
Cosmos 1933 4.4 23:34:20 10° NNW 23:37:55 31° W 23:38:13 31° W
Cosmos 1603 4.1 23:36:25 38° SSE 23:38:01 49° ESE 23:43:31 10° NE
Cosmos 1151 Rocket 4.1 23:35:38 10° NNW 23:39:27 31° W 23:40:03 29° WSW
Cosmos 1727 Rocket 4.2 23:39:31 10° NNW 23:45:39 61° W 23:48:04 37° SSW
Cosmos 1500 Rocket 3.5 23:44:49 57° SSW 23:45:41 79° W 23:50:05 10° N
APEX 4.5 23:43:11 10° NW 23:44:22 21° WNW 23:44:22 21° WNW
Cosmos 44 4.2 23:43:37 21° W 23:45:59 37° NW 23:50:10 10° NNE
Resurs 1-4 Rocket 4.0 23:42:36 10° NE 23:46:17 19° E 23:48:44 14° ESE
Cosmos 2369 Rocket 2.1 23:40:41 10° NNW 23:46:19 82° ENE 23:48:49 35° SSE
ISS -1.5 23:51:00 16° E 23:51:00 16° E 23:52:00 10° E
Cosmos 371 Rocket 4.1 23:45:24 10° NW 23:49:48 35° WSW 23:50:25 34° WSW
SeaSat 1 3.8 23:46:10 10° NE 23:50:16 26° ESE 23:51:20 24° SE
Cosmos 1000 Rocket 4.5 23:46:14 10° N 23:52:37 88° E 23:55:26 36° S
Helios 1B rocket 2.3 23:50:35 10° NNE 23:54:44 80° ESE 23:55:23 61° S
